DELTA 1 DEB, 18540

Orbit data source: Space-Track

DELTA 1 DEB, 18540 is space debris in LEO originally from a launch on Thu, 29 Jul 1976 UTC launched from the Air Force Western Test Range (AFWTR). Debris objects in space refer to the collection of defunct objects orbiting the Earth. Examples of debris include non-operational satellites, rocket bodies, and fragments generated from explosions, collisions, or faulty payload assembly.

Loading next visibility...
Identifier
18540, 1976-077FC
Orbit
LEO
Country
Flag of USUS
Related business
Manufacturer
Unknown
Mission
Spacecraft
Bus & Motor
Unknown
Mass
Unknown
Launch date (UTC)
1976-07-29 (50 years ago)
Launch vehicle
Unknown
Launch site
Air Force Western Test Range (AFWTR)
Object type
Payload
Rocket body
Debris
Shape & HBR
Unknown shape, 0.1 m
Radar Cross Section
Small (<0.1 m²)

Expand to show TLE details & history
Last TLE update: 1 day ago

TLE from 1 day ago
0 DELTA 1 DEB
1 18540U 76077FC  26072.29284994  .00006348  00000-0  34060-1 0  9994
2 18540 103.8944 193.8774 0481303 177.9880 212.9637 12.35836927603440
Epoch: 2026-03-13T07:01Z
TLE epoch observation values (Epoch: 2026-03-13T07:01:42.234Z)
Latitude
27.24193°
Longitude
-89.76185°
Altitude
1,851.506 km
Speed
6.819 km/s
True Right ascension
12h 26m 22s
True Declination
27° 07' 15"
Sunlit
Object was in full shadow at epoch
Visualization orbit readout
Latitude
Unknown
Longitude
Unknown
Altitude
Unknown
Speed
Unknown
Apparent Right ascension
Unknown
Apparent Declination
Unknown
Sunlit
N/A
Visualization observer readout
Local Sidereal Time
16:57:12
Azimuth
Unknown
Elevation
Unknown
Doppler factor
Unknown
Orbital elements
Apogee altitude
1,902.229 km
Perigee altitude
1,141.758 km
Semi-major axis
7,900.13 km
Eccentricity
0.04813
Inclination
103.8944°
RAAN
193.8774°
Arg. of periapsis
177.988°
True anomaly
210.1084°
Mean anomaly
212.9637°
Eccentric anomaly
211.52193°
Mean motion
3.09095 °/min
Orbital period
116.47 mins
BSTAR
0.03406
Loading maneuver chart data...
Computing Atmospheric mass density...
Loading historical data...
Loading historical data...
Loading historical data...
Loading historical data...
Loading historical data...
Loading historical data...
Loading historical data...

Documentation

Showing up to 5 results
|